sat.trackr.live / text

‹ back to catalog

STARLINK-3235

NORAD 50200 · 2021-125AW

PAYLOAD ACTIVE UNKNOWN

§ Identity

Operator
Country
US
Launch date
2021-12-18
Launch site
AFWTR
Launch vehicle
Mass (kg)
RCS (m²)

Purposes: comms

External: N2YO · Heavens-Above · Gunter

§ Orbital elements

Epoch: 2026-09-20T00:48:42.643296Z

Period
93.90 min
Inclination
53.1603°
Eccentricity
0.0000752
Mean motion
15.33549420 rev/d
Perigee alt
464.7 km
Apogee alt
465.7 km
Semi-major
6,843.4 km
B*
3.4277e-5
RAAN
76.2167°
Arg perigee
85.7523°
Mean anomaly
274.3565°
Rev number
26,622

§ Raw data

STARLINK-32351 50200U 21125AW  26263.03382689  .00000755  00000+0  34277-4 0  99992 50200  53.1603  76.2167 0000752  85.7523 274.3565 15.33549420266226

JSON: /api/v1/satellites/50200 · /tle

For live sub-satellite position, see the globe view (requires WebGL).

§ Visibility from observer

Set your observer location to see the next 7 days of passes ≥ 10°. The values pass through the URL so the page stays shareable.

No JS? Fill the form by hand. The geolocation button needs JavaScript.